📊 Raw Sensor Data
Showing records 50076 to 50100 of 85,129 total
| ID | Distance (ft) | Battery V | Battery A | Int Temp (°F) | Int Humid (%) | Ext Temp (°F) | Solar V | RSSI | SNR | Time Stamp |
|---|---|---|---|---|---|---|---|---|---|---|
| 35066 | -- | 4.04 | 0 | 64 | 42 | 61 | 5.10 | -81 | 8 | 03/15/2025 03:15 PM |
| 35065 | -- | 4.04 | 0 | 64 | 42 | 60 | 5.10 | -79 | 8 | 03/15/2025 03:01 PM |
| 35064 | -- | 4.06 | 0 | 67 | 40 | 61 | 5.10 | -80 | 8 | 03/15/2025 02:45 PM |
| 35063 | -- | 4.15 | 0 | 72 | 37 | 64 | 5.10 | -79 | 8 | 03/15/2025 02:30 PM |
| 35062 | -- | 4.10 | 0 | 64 | 41 | 64 | 5.10 | -77 | 8 | 03/15/2025 02:15 PM |
| 35061 | -- | 4.04 | 0 | 62 | 42 | 60 | 5.10 | -80 | 8 | 03/15/2025 02:00 PM |
| 35060 | -- | 4.04 | 0 | 64 | 41 | 60 | 5.10 | -81 | 9 | 03/15/2025 01:45 PM |
| 35059 | 15.2 | 4.04 | 0 | 65 | 40 | 61 | 5.10 | -79 | 8 | 03/15/2025 01:30 PM |
| 35058 | 15.1 | 4.14 | 0 | 66 | 40 | 61 | 5.10 | -80 | 7 | 03/15/2025 01:15 PM |
| 35057 | 15.1 | 4.04 | 0 | 66 | 39 | 63 | 5.10 | -80 | 6 | 03/15/2025 01:00 PM |
| 35056 | 15.2 | 4.04 | 0 | 65 | 39 | 62 | 5.10 | -79 | 8 | 03/15/2025 12:45 PM |
| 35055 | 15.2 | 4.04 | 0 | 64 | 39 | 61 | 5.10 | -80 | 7 | 03/15/2025 12:30 PM |
| 35054 | 15.2 | 4.04 | 0 | 66 | 38 | 62 | 5.10 | -79 | 8 | 03/15/2025 12:15 PM |
| 35053 | 15.2 | 4.03 | 0 | 66 | 37 | 63 | 5.10 | -78 | 8 | 03/15/2025 12:00 PM |
| 35052 | 15.2 | 4.07 | 0 | 64 | 37 | 63 | 5.10 | -78 | 7 | 03/15/2025 11:45 AM |
| 35051 | 15.2 | 4.05 | 0 | 63 | 37 | 63 | 5.10 | -78 | 7 | 03/15/2025 11:30 AM |
| 35050 | 15.1 | 4.07 | 0 | 60 | 37 | 59 | 5.10 | -80 | 7 | 03/15/2025 11:15 AM |
| 35049 | 15.2 | 4.04 | 0 | 59 | 37 | 59 | 5.10 | -79 | 8 | 03/15/2025 11:00 AM |
| 35048 | 15.1 | 4.04 | 0 | 57 | 37 | 58 | 5.10 | -80 | 7 | 03/15/2025 10:45 AM |
| 35047 | 15.2 | 4.07 | 0 | 56 | 37 | 57 | 5.10 | -80 | 7 | 03/15/2025 10:30 AM |
| 35046 | 15.2 | 4.03 | 0 | 54 | 37 | 57 | 5.10 | -80 | 7 | 03/15/2025 10:15 AM |
| 35045 | 15.2 | 4.09 | 0 | 53 | 37 | 54 | 5.10 | -80 | 7 | 03/15/2025 10:00 AM |
| 35044 | 15.1 | 4.03 | 0 | 51 | 38 | 53 | 5.10 | -78 | 7 | 03/15/2025 09:45 AM |
| 35043 | 15.1 | 4.03 | 0 | 50 | 37 | 51 | 5.10 | -78 | 8 | 03/15/2025 09:30 AM |
| 35042 | 15.1 | 4.04 | 0 | 49 | 38 | 50 | 5.10 | -80 | 8 | 03/15/2025 09:15 AM |